Regional Weather Roundup
Issued by NWS

Home | Current Version | Previous Version | Graphics & Text | Print | Product List | Glossary On
Versions: 1 2 3 4 5 6 7 8 9 10 11 12 13 14 15 16 17 18 19 20 21 22 23 24 25 26 27 28 29 30 31 32 33 34 35 36 37 38 39 40 41 42 43 44 45 46 47 48 49 50
271
ASUS45 KBOU 020207
RWRCO

WEATHER ROUNDUP FOR COLORADO
NATIONAL WEATHER SERVICE DENVER/BOULDER CO
800 PM MDT SUN MAY 01 2016

NOTE: "FAIR" INDICATES FEW OR NO CLOUDS BELOW 12000 FEET WITH NO
SIGNIFICANT WEATHER AND/OR OBSTRUCTIONS TO VISIBILITY.

COZ001>005-013-030-031-020300-
...NORTHWEST COLORADO...

CITY           SKY/WX    TMP DP  RH WIND       PRES   REMARKS
CRAIG          FAIR      50  27  40 E10       30.06R
HAYDEN         FAIR      46  25  42 E15       30.07R
MEEKER         CLOUDY    51  31  46 W6        30.05S
MOUNT WERNER   NOT AVBL
STEAMBOAT SPGS FAIR      43  23  44 NE17G24   30.09R
WALDEN         CLOUDY    34  21  60 N9G17     30.19R WCI  26
$$

COZ006>008-011-020300-
...WEST CENTRAL VALLEYS...

CITY           SKY/WX    TMP DP  RH WIND       PRES   REMARKS
GRAND JUNCTION CLOUDY    54  35  48 SE15      30.06R
MONTROSE       CLOUDY    48  34  58 CALM      30.12R
EAGLE          MOCLDY    46  32  57 N5        30.11R
RIFLE          LGT RAIN  49  38  65 SE15      30.07R
DELTA          NOT AVBL
NUCLA          NOT AVBL
$$

COZ017>023-064>068-020300-
...SOUTHWEST COLORADO...

CITY           SKY/WX    TMP DP  RH WIND       PRES   REMARKS
DURANGO        CLOUDY    40  36  86 E8        30.15R
CORTEZ         LGT RAIN  43  36  76 SE6G17    30.12R
PAGOSA SPRINGS LGT SNOW  36  35  98 CALM      30.19R
TELLURIDE      CLOUDY    34  33  96 W7        30.17R WCI  28
WOLF CREEK PAS SNOW      21  21 100 MISG      30.25R VSB 1/2
$$

COZ009-010-012-014-032>034-037-058>063-020300-
...CENTRAL COLORADO...

CITY           SKY/WX    TMP DP  RH WIND       PRES   REMARKS
ASPEN          CLOUDY    41  24  51 SE8       30.12R
BUENA VISTA    CLOUDY    32  30  93 CALM      30.24R
COPPER MTN     NOT AVBL
BERTHOUD PASS  CLOUDY    14   3  62 E16G23    30.22S WCI  -2
COTTONWOOD PAS CLOUDY    30  27  86 E5        30.24R WCI  25
GUNNISON       CLOUDY    39  23  52 E12       30.18R
KREMMLING      MOCLDY    37  21  52 E14G21    30.15R
LEADVILLE      LGT SNOW  23  23 100 S14       30.20R VSB 1   WCI  11
MONARCH PASS   CLOUDY    19  16  86 MISG      30.31R
SALIDA         CLOUDY    33  31  90 E9        30.32R WCI  26
SUNLIGHT       LGT SNOW  32  30  93 CALM      30.22R
WILKERSON PASS LGT SNOW N/A N/A N/A CALM      30.26S
$$

COZ069>075-020300-
...SAN LUIS VALLEY/SANGRE DE CRISTO MOUNTAINS...

CITY           SKY/WX    TMP DP  RH WIND       PRES   REMARKS
ALAMOSA        MOCLDY    34  26  72 E15       30.18R WCI  24
LA VETA PASS   SNOW      21  19  93 MISG      30.24R VSB 1/2
SAGUACHE       CLOUDY    36  30  80 SW5       30.19S
$$

COZ035-036-038>040-020300-
...NORTHERN COLORADO FRONT RANGE...

CITY           SKY/WX    TMP DP  RH WIND       PRES   REMARKS
DENVER INTL AP MOCLDY    38  26  62 W5        30.27S
DMNS CITY PARK   N/A     39  28  63 NE8       30.28R
AURORA         FAIR      36  32  85 SW3       30.28S
FRONT RANGE AP PTCLDY    37  28  70 NW3       30.27S
ERIE MUNI ARPT CLOUDY    41  32  70 CALM      30.28S
BOULDER MUN AP CLOUDY    41  32  70 CALM      30.27S
CENTENNIAL     MOCLDY    35  30  82 SW6       30.27S WCI  30
BROOMFIELD     MOCLDY    39  32  75 CALM      30.28S
FORT COLLINS   FAIR      41  25  52 CALM      30.29R
LONGMONT       CLOUDY    44  30  57 CALM      30.30R HAZE
$$

COZ041-046-047-076>085-087-088-020300-
...PIKES PEAK/PALMER DIVIDE AND SOUTHERN FOOTHILLS...

CITY           SKY/WX    TMP DP  RH WIND       PRES   REMARKS
COLO. SPRINGS  CLOUDY    35  26  69 N10       30.28R WCI  27
A. F. ACADEMY  CLOUDY    32  27  80 N9        30.26S WCI  24
SCHRIEVER AFB  NOT AVBL
ELLICOTT       NOT AVBL
FALCON         CLOUDY    32  26  79 N9        30.27R WCI  24
FORT CARSON    CLOUDY    37  30  75 N8        30.27R
LIMON          FAIR      31  27  85 N6        30.27R WCI  25
MONUMENT HILL  FAIR      28  27  93 NW6       30.28S WCI  22
TRINIDAD       CLOUDY    36  32  85 NW9       30.28R
$$

COZ042>045-048>051-090-091-020300-
...NORTHEAST COLORADO...

CITY           SKY/WX    TMP DP  RH WIND       PRES   REMARKS
GREELEY ARPT   CLOUDY    43  28  56 W5        30.28S
AKRON          FAIR      35  28  75 N3        30.26S
BURLINGTON     FAIR      40  28  62 N9        30.25R
WRAY           NOT AVBL
STERLING       FAIR      43  30  61 CALM      30.26S
HOLYOKE        NOT AVBL
FORT MORGAN    FAIR      39  27  60 N6        30.27S
$$

COZ086-089-092>099-020300-
...SOUTHEAST COLORADO...

CITY           SKY/WX    TMP DP  RH WIND       PRES   REMARKS
PUEBLO         CLOUDY    43  31  62 NE6       30.29R
LA JUNTA       CLOUDY    45  29  53 N9        30.26R
LAMAR          CLOUDY    46  33  60 N6        30.23R
SPRINGFIELD      N/A     40  35  83 N13       30.23S
$$




USA.gov is the U.S. government's official web portal to all federal, state and local government web resources and services.